QPF
0.00 0.00 0.00 0.00 0.00 0.00 0.00 0.00 0.00 0.00 0.00 0.00 0.00 0.00 0.00 0.00 0.00 0.00 0.00 0.00 0.00 0.00 0.00 0.00 0.01 0.01 0.00 0.00 0.00 0.00 0.00 0.00 0.00 0.00 0.00 0.00 0.00 0.00 0.00 0.00 0.00 0.00 0.00
0.00 0.00 0.00 0.00 0.00 0.00 0.00 0.00 0.00 0.00 0.00 0.00 0.00 0.00 0.00 0.00 0.00 0.00 0.00 0.00 0.00 0.00 0.00 0.00 0.01 0.01 0.01 0.00 0.00 0.00 0.00 0.00 0.00 0.00 0.00 0.00 0.00 0.00 0.00 0.00 0.00 0.00 0.00
0.00 0.00 0.00 0.00 0.00 0.00 0.00 0.00 0.00 0.00 0.00 0.00 0.00 0.00 0.00 0.00 0.00 0.00 0.00 0.00 0.00 0.00 0.00 0.00 0.00 0.01 0.02 0.01 0.01 0.00 0.00 0.00 0.00 0.00 0.00 0.00 0.00 0.00 0.00 0.00 0.00 0.00 0.00
0.00 0.00 0.00 0.00 0.00 0.00 0.00 0.00 0.00 0.00 0.00 0.00 0.00 0.00 0.00 0.00 0.00 0.00 0.00 0.00 0.00 0.00 0.00 0.00 0.00 0.01 0.02 0.03 0.02 0.02 0.01 0.00 0.00 0.00 0.00 0.00 0.00 0.00 0.00 0.00 0.00 0.00 0.00
0.00 0.00 0.00 0.00 0.00 0.00 0.00 0.00 0.00 0.00 0.00 0.00 0.00 0.00 0.00 0.00 0.00 0.00 0.00 0.00 0.00 0.00 0.00 0.00 0.00 0.01 0.01 0.02 0.03 0.04 0.04 0.02 0.01 0.00 0.00 0.00 0.00 0.00 0.00 0.00 0.00 0.00 0.00
0.00 0.00 0.00 0.00 0.00 0.00 0.00 0.00 0.00 0.00 0.00 0.00 0.00 0.00 0.00 0.00 0.00 0.00 0.00 0.00 0.00 0.00 0.01 0.01 0.01 0.01 0.00 0.01 0.03 0.04 0.07 0.08 0.05 0.03 0.01 0.00 0.00 0.00 0.00 0.00 0.00 0.00 0.00
0.00 0.00 0.00 0.00 0.00 0.00 0.00 0.00 0.00 0.00 0.00 0.00 0.00 0.00 0.00 0.00 0.00 0.00 0.00 0.00 0.00 0.00 0.00 0.01 0.01 0.01 0.01 0.01 0.02 0.03 0.05 0.09 0.11 0.08 0.04 0.02 0.01 0.00 0.00 0.00 0.00 0.01 0.01
0.00 0.00 0.00 0.00 0.00 0.00 0.00 0.00 0.00 0.01 0.01 0.00 0.01 0.02 0.01 0.00 0.00 0.00 0.00 0.00 0.00 0.00 0.00 0.00 0.00 0.01 0.01 0.01 0.01 0.02 0.03 0.07 0.13 0.17 0.15 0.08 0.04 0.02 0.01 0.01 0.01 0.02 0.02
0.00 0.00 0.00 0.00 0.00 0.00 0.01 0.01 0.01 0.01 0.01 0.01 0.01 0.02 0.03 0.02 0.01 0.00 0.00 0.00 0.00 0.00 0.00 0.00 0.00 0.00 0.00 0.01 0.01 0.01 0.02 0.03 0.07 0.16 0.21 0.19 0.13 0.07 0.04 0.03 0.04 0.04 0.04
0.00 0.00 0.00 0.00 0.00 0.00 0.00 0.00 0.01 0.01 0.01 0.01 0.01 0.01 0.02 0.02 0.03 0.02 0.01 0.00 0.00 0.00 0.00 0.00 0.00 0.00 0.00 0.00 0.00 0.01 0.01 0.02 0.05 0.11 0.21 0.26 0.24 0.20 0.14 0.09 0.08 0.07 0.07
0.00 0.00 0.00 0.00 0.00 0.00 0.00 0.00 0.00 0.01 0.01 0.01 0.01 0.01 0.01 0.01 0.02 0.02 0.02 0.01 0.00 0.00 0.00 0.00 0.00 0.00 0.00 0.00 0.00 0.01 0.01 0.02 0.05 0.11 0.20 0.28 0.33 0.34 0.30 0.24 0.18 0.15 0.13
0.00 0.00 0.00 0.00 0.00 0.00 0.00 0.00 0.00 0.00 0.01 0.01 0.01 0.02 0.02 0.02 0.01 0.01 0.02 0.01 0.01 0.01 0.00 0.00 0.00 0.00 0.00 0.00 0.00 0.01 0.01 0.03 0.06 0.11 0.20 0.29 0.34 0.38 0.41 0.41 0.38 0.31 0.23
0.00 0.00 0.00 0.00 0.00 0.00 0.00 0.00 0.00 0.00 0.00 0.00 0.01 0.01 0.01 0.01 0.01 0.01 0.02 0.01 0.01 0.01 0.00 0.00 0.00 0.00 0.00 0.00 0.00 0.00 0.01 0.02 0.04 0.09 0.16 0.25 0.32 0.36 0.41 0.46 0.46 0.41 0.35
0.00 0.00 0.00 0.00 0.00 0.00 0.00 0.00 0.00 0.00 0.00 0.00 0.00 0.00 0.01 0.01 0.01 0.01 0.01 0.01 0.01 0.01 0.00 0.00 0.00 0.00 0.00 0.00 0.00 0.00 0.00 0.02 0.03 0.06 0.12 0.19 0.25 0.26 0.28 0.32 0.36 0.35 0.33
0.00 0.00 0.00 0.00 0.00 0.00 0.00 0.00 0.00 0.00 0.00 0.00 0.00 0.00 0.00 0.00 0.00 0.00 0.00 0.01 0.01 0.01 0.01 0.00 0.00 0.00 0.00 0.00 0.00 0.00 0.00 0.01 0.03 0.05 0.09 0.13 0.16 0.17 0.18 0.20 0.24 0.25 0.25
0.00 0.00 0.00 0.00 0.00 0.00 0.00 0.00 0.00 0.00 0.00 0.00 0.00 0.00 0.00 0.00 0.00 0.00 0.00 0.00 0.00 0.01 0.00 0.00 0.00 0.00 0.00 0.00 0.00 0.00 0.00 0.01 0.02 0.05 0.08 0.11 0.12 0.12 0.15 0.18 0.21 0.22 0.21
0.00 0.00 0.00 0.00 0.00 0.00 0.00 0.00 0.00 0.00 0.00 0.00 0.00 0.00 0.00 0.00 0.00 0.00 0.00 0.00 0.00 0.00 0.00 0.00 0.00 0.00 0.00 0.00 0.00 0.00 0.00 0.01 0.02 0.04 0.06 0.07 0.09 0.10 0.10 0.12 0.15 0.17 0.17
0.00 0.00 0.00 0.00 0.00 0.00 0.00 0.00 0.00 0.00 0.00 0.00 0.00 0.00 0.00 0.00 0.00 0.00 0.00 0.00 0.00 0.00 0.00 0.00 0.00 0.00 0.00 0.00 0.00 0.00 0.00 0.00 0.01 0.03 0.04 0.05 0.06 0.06 0.07 0.07 0.08 0.08 0.09
0.00 0.00 0.00 0.00 0.00 0.00 0.00 0.00 0.00 0.00 0.00 0.00 0.00 0.00 0.00 0.00 0.00 0.00 0.00 0.00 0.00 0.00 0.00 0.00 0.00 0.00 0.00 0.00 0.00 0.00 0.00 0.00 0.01 0.01 0.02 0.02 0.03 0.03 0.03 0.03 0.03 0.03 0.03
0.00 0.00 0.00 0.00 0.00 0.00 0.00 0.00 0.00 0.00 0.00 0.00 0.00 0.00 0.00 0.00 0.00 0.00 0.00 0.00 0.00 0.00 0.00 0.00 0.00 0.00 0.00 0.00 0.00 0.00 0.00 0.00 0.00 0.00 0.01 0.01 0.01 0.01 0.01 0.01 0.01 0.01 0.01
0.00 0.00 0.00 0.00 0.00 0.00 0.00 0.00 0.00 0.00 0.00 0.00 0.00 0.00 0.00 0.00 0.00 0.00 0.00 0.00 0.00 0.00 0.00 0.00 0.00 0.00 0.00 0.00 0.00 0.00 0.00 0.00 0.00 0.00 0.00 0.00 0.00 0.00 0.00 0.00 0.00 0.00 0.00
0.00 0.00 0.00 0.00 0.00 0.00 0.00 0.00 0.00 0.00 0.00 0.00 0.00 0.00 0.00 0.00 0.00 0.00 0.00 0.00 0.00 0.00 0.00 0.00 0.00 0.00 0.00 0.00 0.00 0.00 0.00 0.00 0.00 0.00 0.00 0.00 0.00 0.00 0.00 0.00 0.00 0.00 0.00
0.00 0.00 0.00 0.00 0.00 0.00 0.00 0.00 0.00 0.00 0.00 0.00 0.00 0.00 0.00 0.00 0.00 0.00 0.00 0.00 0.00 0.00 0.00 0.00 0.00 0.00 0.00 0.00 0.00 0.00 0.00 0.00 0.00 0.00 0.00 0.00 0.00 0.00 0.00 0.00 0.00 0.00 0.00
0.00 0.00 0.00 0.00 0.00 0.00 0.00 0.00 0.00 0.00 0.00 0.00 0.00 0.00 0.00 0.00 0.00 0.00 0.00 0.00 0.00 0.00 0.00 0.00 0.00 0.00 0.00 0.00 0.00 0.00 0.00 0.00 0.00 0.00 0.00 0.00 0.00 0.00 0.00 0.00 0.00 0.00 0.00
0.00 0.00 0.00 0.00 0.00 0.00 0.00 0.00 0.00 0.00 0.00 0.00 0.00 0.00 0.00 0.00 0.00 0.00 0.00 0.00 0.00 0.00 0.00 0.00 0.00 0.00 0.00 0.00 0.00 0.00 0.00 0.00 0.00 0.00 0.00 0.00 0.00 0.00 0.00 0.00 0.00 0.00 0.00
0.00 0.00 0.00 0.00 0.00 0.00 0.00 0.00 0.00 0.00 0.00 0.00 0.00 0.00 0.00 0.00 0.00 0.00 0.00 0.00 0.00 0.00 0.00 0.00 0.00 0.00 0.00 0.00 0.00 0.00 0.00 0.00 0.00 0.00 0.00 0.00 0.00 0.00 0.00 0.00 0.00 0.00 0.00
MSLP
1020.92 1021.11 1021.28 1021.40 1021.49 1021.55 1021.57 1021.58 1021.56 1021.52 1021.45 1021.36 1021.25 1021.13 1021.00 1020.90 1020.83 1020.81 1020.85 1020.94 1021.06 1021.20 1021.33 1021.44 1021.53 1021.58 1021.61 1021.63 1021.66 1021.68 1021.72 1021.76 1021.81 1021.85 1021.88 1021.89 1021.88 1021.87 1021.86 1021.85 1021.85 1021.86 1021.89
1020.69 1020.85 1021.00 1021.11 1021.19 1021.25 1021.27 1021.28 1021.27 1021.23 1021.17 1021.08 1020.97 1020.85 1020.71 1020.59 1020.50 1020.45 1020.45 1020.51 1020.60 1020.71 1020.84 1020.96 1021.06 1021.14 1021.21 1021.27 1021.32 1021.39 1021.47 1021.55 1021.65 1021.74 1021.83 1021.90 1021.95 1021.99 1022.02 1022.04 1022.07 1022.11 1022.15
1020.43 1020.58 1020.71 1020.82 1020.89 1020.95 1020.98 1020.99 1020.99 1020.96 1020.92 1020.85 1020.75 1020.62 1020.48 1020.33 1020.20 1020.11 1020.06 1020.06 1020.11 1020.19 1020.30 1020.41 1020.52 1020.62 1020.70 1020.79 1020.87 1020.97 1021.08 1021.21 1021.35 1021.50 1021.64 1021.77 1021.89 1021.98 1022.07 1022.14 1022.20 1022.27 1022.35
1020.19 1020.33 1020.44 1020.54 1020.61 1020.66 1020.69 1020.71 1020.73 1020.72 1020.70 1020.64 1020.56 1020.44 1020.29 1020.12 1019.96 1019.82 1019.71 1019.66 1019.65 1019.69 1019.76 1019.85 1019.96 1020.06 1020.16 1020.25 1020.36 1020.47 1020.61 1020.76 1020.94 1021.12 1021.32 1021.51 1021.68 1021.84 1021.98 1022.11 1022.22 1022.33 1022.44
1019.97 1020.09 1020.20 1020.28 1020.34 1020.38 1020.42 1020.44 1020.47 1020.48 1020.48 1020.45 1020.38 1020.27 1020.12 1019.94 1019.75 1019.57 1019.42 1019.31 1019.25 1019.25 1019.29 1019.35 1019.44 1019.54 1019.63 1019.73 1019.83 1019.95 1020.09 1020.25 1020.44 1020.66 1020.88 1021.12 1021.34 1021.55 1021.75 1021.93 1022.09 1022.25 1022.40
1019.79 1019.90 1019.99 1020.05 1020.09 1020.12 1020.15 1020.17 1020.20 1020.22 1020.23 1020.22 1020.17 1020.08 1019.95 1019.77 1019.57 1019.37 1019.18 1019.04 1018.94 1018.90 1018.91 1018.95 1019.02 1019.11 1019.19 1019.28 1019.37 1019.47 1019.59 1019.74 1019.92 1020.13 1020.37 1020.62 1020.87 1021.13 1021.36 1021.59 1021.81 1022.01 1022.22
1019.67 1019.75 1019.82 1019.86 1019.88 1019.88 1019.89 1019.89 1019.91 1019.93 1019.95 1019.96 1019.93 1019.86 1019.74 1019.58 1019.39 1019.18 1018.99 1018.83 1018.71 1018.65 1018.65 1018.68 1018.74 1018.81 1018.88 1018.95 1019.01 1019.08 1019.17 1019.28 1019.42 1019.60 1019.81 1020.05 1020.31 1020.57 1020.83 1021.10 1021.35 1021.62 1021.88
1019.61 1019.67 1019.71 1019.72 1019.71 1019.69 1019.66 1019.63 1019.63 1019.64 1019.65 1019.66 1019.65 1019.60 1019.51 1019.37 1019.19 1019.00 1018.82 1018.66 1018.55 1018.50 1018.49 1018.53 1018.59 1018.66 1018.73 1018.78 1018.81 1018.84 1018.87 1018.92 1018.99 1019.11 1019.27 1019.45 1019.68 1019.92 1020.18 1020.46 1020.75 1021.06 1021.38
1019.63 1019.68 1019.69 1019.67 1019.63 1019.56 1019.49 1019.43 1019.39 1019.37 1019.37 1019.38 1019.37 1019.34 1019.26 1019.14 1018.99 1018.83 1018.66 1018.53 1018.44 1018.41 1018.43 1018.49 1018.57 1018.65 1018.72 1018.76 1018.77 1018.75 1018.72 1018.69 1018.68 1018.71 1018.77 1018.88 1019.03 1019.23 1019.46 1019.73 1020.04 1020.38 1020.76
1019.76 1019.79 1019.78 1019.73 1019.65 1019.54 1019.43 1019.33 1019.25 1019.20 1019.18 1019.16 1019.15 1019.11 1019.05 1018.95 1018.82 1018.67 1018.54 1018.43 1018.37 1018.37 1018.43 1018.52 1018.64 1018.75 1018.83 1018.87 1018.86 1018.81 1018.71 1018.61 1018.50 1018.42 1018.37 1018.38 1018.44 1018.55 1018.73 1018.98 1019.28 1019.65 1020.07
1020.00 1020.01 1019.98 1019.91 1019.80 1019.66 1019.51 1019.37 1019.25 1019.16 1019.11 1019.07 1019.04 1019.00 1018.93 1018.83 1018.71 1018.58 1018.46 1018.37 1018.35 1018.38 1018.47 1018.61 1018.77 1018.92 1019.03 1019.09 1019.07 1018.99 1018.84 1018.66 1018.46 1018.27 1018.11 1018.00 1017.95 1017.98 1018.09 1018.28 1018.57 1018.94 1019.40
1020.33 1020.34 1020.30 1020.21 1020.08 1019.91 1019.73 1019.56 1019.41 1019.29 1019.20 1019.14 1019.09 1019.03 1018.94 1018.83 1018.71 1018.57 1018.46 1018.38 1018.37 1018.43 1018.56 1018.73 1018.94 1019.13 1019.28 1019.36 1019.35 1019.26 1019.08 1018.84 1018.56 1018.27 1018.01 1017.79 1017.64 1017.57 1017.61 1017.75 1018.00 1018.36 1018.83
1020.75 1020.75 1020.71 1020.61 1020.46 1020.28 1020.08 1019.89 1019.71 1019.57 1019.47 1019.38 1019.31 1019.23 1019.13 1019.00 1018.85 1018.70 1018.57 1018.49 1018.48 1018.55 1018.69 1018.90 1019.14 1019.37 1019.56 1019.67 1019.68 1019.59 1019.39 1019.11 1018.78 1018.42 1018.07 1017.77 1017.54 1017.40 1017.36 1017.45 1017.66 1018.00 1018.45
1021.20 1021.21 1021.16 1021.06 1020.90 1020.71 1020.51 1020.31 1020.13 1019.98 1019.87 1019.78 1019.70 1019.60 1019.48 1019.33 1019.16 1018.98 1018.83 1018.73 1018.70 1018.76 1018.91 1019.13 1019.38 1019.64 1019.86 1020.00 1020.03 1019.95 1019.75 1019.46 1019.10 1018.71 1018.32 1017.96 1017.67 1017.48 1017.39 1017.43 1017.61 1017.91 1018.33
1021.66 1021.67 1021.62 1021.51 1021.35 1021.16 1020.96 1020.77 1020.60 1020.47 1020.36 1020.28 1020.21 1020.11 1019.98 1019.82 1019.63 1019.43 1019.25 1019.12 1019.06 1019.10 1019.23 1019.43 1019.69 1019.95 1020.18 1020.34 1020.39 1020.32 1020.14 1019.86 1019.50 1019.11 1018.71 1018.34 1018.03 1017.82 1017.70 1017.71 1017.85 1018.11 1018.48
1022.09 1022.09 1022.03 1021.92 1021.77 1021.58 1021.39 1021.22 1021.08 1020.97 1020.90 1020.85 1020.79 1020.71 1020.60 1020.44 1020.24 1020.02 1019.82 1019.65 1019.56 1019.56 1019.66 1019.83 1020.06 1020.31 1020.53 1020.69 1020.75 1020.70 1020.54 1020.28 1019.95 1019.58 1019.20 1018.85 1018.56 1018.35 1018.24 1018.23 1018.34 1018.56 1018.87
1022.45 1022.44 1022.38 1022.27 1022.12 1021.95 1021.78 1021.63 1021.53 1021.46 1021.43 1021.42 1021.40 1021.36 1021.27 1021.13 1020.94 1020.72 1020.50 1020.31 1020.19 1020.15 1020.20 1020.33 1020.51 1020.72 1020.91 1021.05 1021.11 1021.07 1020.92 1020.69 1020.40 1020.07 1019.74 1019.44 1019.19 1019.01 1018.92 1018.91 1019.00 1019.17 1019.43
1022.73 1022.72 1022.66 1022.55 1022.41 1022.26 1022.12 1022.01 1021.94 1021.92 1021.94 1021.97 1022.00 1022.00 1021.95 1021.84 1021.68 1021.47 1021.25 1021.05 1020.90 1020.82 1020.82 1020.89 1021.02 1021.18 1021.32 1021.42 1021.45 1021.41 1021.28 1021.07 1020.82 1020.54 1020.27 1020.02 1019.83 1019.69 1019.63 1019.63 1019.70 1019.84 1020.03
1022.96 1022.95 1022.90 1022.80 1022.68 1022.56 1022.44 1022.37 1022.33 1022.35 1022.41 1022.49 1022.56 1022.61 1022.60 1022.53 1022.39 1022.21 1022.00 1021.80 1021.63 1021.52 1021.47 1021.49 1021.55 1021.64 1021.73 1021.78 1021.78 1021.72 1021.59 1021.41 1021.19 1020.96 1020.74 1020.54 1020.40 1020.30 1020.26 1020.27 1020.33 1020.43 1020.56
1023.15 1023.16 1023.12 1023.05 1022.96 1022.86 1022.78 1022.73 1022.73 1022.78 1022.87 1022.97 1023.08 1023.15 1023.17 1023.14 1023.03 1022.88 1022.69 1022.50 1022.32 1022.19 1022.10 1022.07 1022.07 1022.10 1022.12 1022.13 1022.09 1022.00 1021.86 1021.69 1021.50 1021.30 1021.12 1020.96 1020.85 1020.78 1020.75 1020.76 1020.80 1020.87 1020.95
1023.31 1023.36 1023.36 1023.32 1023.27 1023.20 1023.15 1023.13 1023.15 1023.21 1023.31 1023.42 1023.53 1023.62 1023.66 1023.64 1023.57 1023.44 1023.27 1023.09 1022.92 1022.78 1022.66 1022.59 1022.55 1022.52 1022.49 1022.44 1022.36 1022.25 1022.11 1021.94 1021.75 1021.58 1021.42 1021.28 1021.18 1021.11 1021.08 1021.07 1021.08 1021.11 1021.16
1023.47 1023.57 1023.62 1023.63 1023.61 1023.59 1023.56 1023.56 1023.58 1023.64 1023.73 1023.83 1023.93 1024.01 1024.04 1024.03 1023.97 1023.86 1023.72 1023.55 1023.39 1023.25 1023.12 1023.02 1022.95 1022.88 1022.81 1022.73 1022.62 1022.49 1022.34 1022.17 1021.99 1021.82 1021.67 1021.53 1021.42 1021.34 1021.28 1021.23 1021.21 1021.20 1021.20
1023.63 1023.78 1023.88 1023.94 1023.97 1023.97 1023.97 1023.98 1024.00 1024.05 1024.11 1024.19 1024.25 1024.31 1024.33 1024.31 1024.25 1024.15 1024.02 1023.88 1023.73 1023.59 1023.47 1023.36 1023.27 1023.18 1023.09 1022.99 1022.87 1022.74 1022.58 1022.42 1022.24 1022.07 1021.91 1021.76 1021.63 1021.51 1021.41 1021.32 1021.24 1021.18 1021.14
1023.76 1023.96 1024.11 1024.21 1024.28 1024.31 1024.33 1024.35 1024.36 1024.39 1024.42 1024.46 1024.49 1024.51 1024.51 1024.47 1024.41 1024.31 1024.20 1024.07 1023.94 1023.82 1023.71 1023.61 1023.52 1023.43 1023.34 1023.24 1023.13 1023.00 1022.86 1022.70 1022.54 1022.37 1022.20 1022.03 1021.87 1021.70 1021.55 1021.40 1021.26 1021.15 1021.06
1023.83 1024.06 1024.25 1024.38 1024.48 1024.54 1024.57 1024.59 1024.61 1024.62 1024.63 1024.64 1024.64 1024.63 1024.60 1024.55 1024.47 1024.38 1024.28 1024.17 1024.06 1023.96 1023.87 1023.78 1023.71 1023.63 1023.56 1023.48 1023.39 1023.28 1023.16 1023.03 1022.88 1022.72 1022.54 1022.36 1022.16 1021.95 1021.75 1021.54 1021.34 1021.17 1021.03
1023.81 1024.06 1024.25 1024.40 1024.51 1024.59 1024.64 1024.67 1024.69 1024.70 1024.70 1024.70 1024.68 1024.66 1024.61 1024.55 1024.48 1024.39 1024.30 1024.21 1024.12 1024.04 1023.97 1023.91 1023.86 1023.81 1023.75 1023.70 1023.64 1023.56 1023.47 1023.37 1023.24 1023.10 1022.92 1022.73 1022.51 1022.27 1022.02 1021.76 1021.51 1021.28 1021.09
Thickness
5698 5697 5696 5694 5693 5692 5690 5688 5688 5687 5685 5683 5681 5679 5678 5676 5673 5671 5668 5664 5660 5656 5653 5650 5647 5644 5640 5636 5633 5630 5627 5624 5622 5619 5617 5615 5613 5611 5610 5609 5608 5607 5607
5695 5694 5693 5691 5691 5689 5688 5686 5685 5683 5682 5680 5679 5677 5675 5674 5671 5668 5665 5662 5657 5653 5650 5647 5644 5641 5637 5633 5629 5626 5622 5619 5616 5613 5611 5608 5606 5604 5602 5601 5600 5600 5599
5691 5690 5690 5689 5688 5686 5685 5683 5682 5680 5678 5677 5676 5675 5673 5671 5668 5666 5663 5659 5656 5652 5648 5644 5640 5637 5634 5631 5627 5623 5618 5614 5611 5608 5605 5602 5599 5597 5595 5593 5592 5592 5591
5688 5687 5686 5686 5685 5683 5681 5680 5678 5677 5676 5674 5673 5672 5670 5667 5664 5663 5660 5656 5653 5650 5646 5642 5637 5634 5631 5627 5623 5620 5615 5611 5606 5603 5599 5596 5593 5590 5588 5586 5584 5584 5583
5685 5683 5683 5682 5681 5680 5678 5677 5675 5674 5672 5670 5669 5667 5666 5663 5661 5658 5656 5653 5649 5645 5642 5639 5634 5630 5626 5623 5619 5616 5612 5607 5602 5598 5594 5590 5587 5584 5581 5579 5577 5576 5575
5680 5680 5679 5678 5677 5675 5674 5673 5671 5669 5667 5665 5663 5661 5661 5660 5657 5655 5653 5649 5645 5640 5636 5633 5630 5627 5622 5618 5615 5611 5608 5603 5598 5593 5589 5584 5581 5578 5575 5572 5570 5568 5568
5675 5674 5673 5673 5671 5671 5670 5669 5666 5664 5661 5658 5654 5655 5658 5657 5655 5652 5648 5644 5640 5635 5630 5627 5623 5620 5618 5613 5609 5606 5602 5598 5594 5589 5584 5579 5575 5572 5568 5565 5563 5561 5560
5668 5667 5667 5667 5666 5665 5664 5663 5660 5657 5655 5652 5648 5647 5649 5653 5653 5647 5642 5637 5633 5628 5624 5620 5617 5613 5610 5607 5604 5599 5595 5592 5588 5584 5579 5574 5570 5565 5562 5559 5556 5554 5553
5660 5659 5659 5659 5658 5657 5657 5656 5654 5651 5649 5648 5644 5640 5638 5641 5642 5642 5636 5630 5625 5621 5617 5612 5608 5604 5601 5598 5595 5592 5588 5584 5581 5578 5574 5569 5564 5560 5555 5552 5549 5546 5545
5650 5650 5650 5650 5650 5649 5649 5648 5647 5644 5642 5640 5638 5634 5632 5630 5625 5627 5627 5622 5617 5612 5608 5603 5599 5596 5592 5589 5586 5582 5578 5575 5572 5570 5567 5563 5559 5554 5549 5545 5542 5539 5537
5640 5639 5640 5640 5640 5640 5639 5639 5637 5636 5634 5633 5631 5628 5625 5621 5618 5614 5613 5613 5609 5604 5598 5593 5589 5585 5582 5578 5575 5572 5568 5565 5563 5561 5559 5556 5552 5548 5544 5539 5535 5532 5529
5630 5629 5629 5629 5629 5629 5628 5628 5627 5626 5625 5624 5622 5620 5617 5614 5611 5607 5605 5603 5599 5595 5589 5583 5577 5573 5570 5567 5564 5560 5558 5556 5554 5552 5550 5548 5545 5541 5538 5534 5530 5526 5523
5621 5619 5618 5618 5618 5617 5617 5616 5616 5616 5614 5613 5611 5609 5606 5603 5600 5597 5595 5593 5590 5586 5580 5573 5565 5560 5557 5554 5552 5549 5548 5546 5544 5542 5541 5539 5536 5532 5529 5527 5524 5520 5517
5608 5606 5606 5606 5605 5605 5605 5605 5605 5603 5602 5600 5598 5596 5593 5589 5586 5584 5582 5580 5579 5577 5573 5565 5554 5548 5545 5542 5539 5538 5537 5535 5534 5532 5530 5528 5525 5522 5520 5518 5515 5512 5510
5594 5594 5594 5593 5593 5593 5593 5593 5592 5591 5589 5587 5584 5582 5579 5575 5571 5569 5567 5565 5566 5568 5566 5555 5545 5537 5533 5531 5528 5527 5525 5524 5523 5521 5519 5517 5515 5512 5510 5508 5507 5504 5501
5581 5581 5581 5581 5581 5580 5580 5580 5579 5577 5576 5573 5570 5568 5565 5561 5559 5556 5554 5552 5550 5551 5552 5541 5532 5525 5522 5520 5517 5515 5513 5512 5511 5510 5508 5506 5504 5502 5500 5499 5497 5495 5491
5569 5569 5569 5569 5568 5568 5567 5567 5566 5564 5562 5559 5557 5555 5551 5549 5546 5544 5541 5539 5537 5536 5537 5528 5520 5515 5512 5509 5507 5505 5503 5501 5499 5498 5496 5494 5492 5490 5488 5486 5484 5482 5480
5556 5556 5556 5556 5555 5555 5554 5554 5552 5550 5549 5546 5544 5542 5539 5536 5534 5531 5529 5527 5524 5522 5523 5519 5511 5505 5501 5498 5496 5494 5492 5489 5487 5485 5484 5482 5480 5478 5476 5474 5472 5470 5469
5544 5543 5543 5543 5542 5541 5540 5540 5538 5536 5534 5532 5530 5528 5526 5524 5522 5519 5517 5515 5513 5511 5509 5507 5501 5495 5492 5488 5486 5484 5481 5479 5476 5474 5472 5470 5468 5467 5465 5463 5462 5460 5458
5531 5531 5530 5530 5529 5528 5527 5526 5524 5523 5521 5518 5516 5515 5514 5512 5510 5507 5505 5503 5501 5500 5498 5496 5491 5486 5482 5478 5476 5474 5473 5469 5466 5463 5461 5459 5458 5456 5454 5453 5451 5449 5448
5518 5518 5518 5517 5516 5515 5514 5513 5511 5510 5508 5506 5503 5502 5500 5499 5497 5496 5494 5492 5491 5489 5487 5485 5481 5477 5473 5469 5467 5463 5462 5460 5457 5453 5452 5451 5449 5447 5445 5443 5440 5438 5437
5506 5505 5505 5504 5504 5503 5501 5499 5498 5497 5495 5493 5491 5490 5488 5487 5485 5483 5481 5479 5477 5476 5474 5471 5470 5467 5462 5458 5455 5452 5450 5449 5449 5444 5441 5442 5439 5437 5435 5433 5430 5428 5427
5494 5493 5492 5492 5492 5491 5489 5487 5486 5484 5483 5481 5480 5480 5478 5476 5474 5473 5471 5468 5466 5462 5460 5459 5458 5455 5451 5446 5442 5440 5437 5435 5434 5432 5429 5431 5430 5428 5424 5421 5418 5417 5415
5483 5482 5481 5481 5480 5479 5477 5476 5474 5473 5473 5471 5470 5469 5469 5467 5465 5464 5462 5459 5457 5453 5450 5448 5445 5442 5437 5434 5431 5427 5424 5423 5422 5420 5416 5417 5418 5416 5413 5410 5406 5404 5403
5473 5471 5470 5469 5469 5468 5467 5466 5465 5465 5464 5463 5461 5460 5460 5459 5456 5454 5452 5450 5448 5445 5439 5435 5432 5429 5426 5422 5420 5418 5415 5413 5413 5412 5405 5403 5403 5400 5399 5398 5394 5390 5388
5464 5462 5460 5460 5460 5460 5459 5458 5456 5457 5457 5456 5454 5452 5450 5449 5447 5445 5444 5441 5439 5437 5432 5428 5424 5421 5417 5413 5409 5406 5403 5399 5397 5397 5392 5387 5386 5383 5384 5384 5380 5377 5375